View from above orbital plane
|
View from above satellite
|
Ground track
|
The orbit data is extracted from the following two-line orbital elements,
1 15495U 85009B 21110.55483781 .00000105 00000-0 96846-5 0 9996
2 15495 82.5216 312.7634 0020698 23.9985 336.2190 14.83903887936954
Epoch (UTC): | 20 April 2021 13:18:57 |
Eccentricity: | 0.0020698 |
inclination: | 82.5216° |
perigee height: | 602 km |
apogee height: | 631 km |
right ascension of ascending node: | 312.7634° |
argument of perigee: | 23.9985° |
revolutions per day: | 14.83903887 |
mean anomaly at epoch: | 336.2190° |
orbit number at epoch: | 93695 |
The dashed part of the orbit path shows where the satellite is in the earth's shadow,
|
|